Moab, UT

6:56 PM MDT on April 28, 2017 (GMT -0600)
Canyonlands

Weather History for KCNY - March, 2013

Change the Weather History Date:

Saturday, March 23, 2013

  Actual Average Record
Temperature  
Mean Temperature 32 °F 46 °F  
Max Temperature 42 °F 61 °F 81 °F (1990)
Min Temperature 22 °F 32 °F 19 °F (1952)
Degree Days  
Heating Degree Days 33 19  
Month to date heating degree days 447 498  
Since 1 July heating degree days 5377 4907  
Cooling Degree Days 0 0  
Month to date cooling degree days 0 0  
Year to date cooling degree days 0 0  
Moisture  
Dew Point 2 °F    
Average Humidity 27    
Maximum Humidity 34    
Minimum Humidity 19    
Precipitation  
Precipitation T in 0.03 in 0.80 in (1929)
Month to date precipitation 0.06 0.56  
Year to date precipitation 0.69 1.72  
Sea Level Pressure  
Sea Level Pressure 30.03 in    
Wind  
Wind Speed 10 mph (NW)    
Max Wind Speed 24 mph    
Max Gust Speed 32 mph    
Visibility 10 miles    
Events      
T = Trace of Precipitation, MM = Missing Value Source: NWS Daily Summary

Daily Weather History Graph

Daily Weather History Graph

Search for Another Location

Airport or City:

Trip Planner

Search our weather history database for the weather conditions in past years. The results will help you decide how hot, cold, wet, or windy it might be!

Date:

Astronomy

Mar. 23, 2013 Rise Set
Actual Time 7:17 AM MDT 7:34 PM MDT
Civil Twilight 6:50 AM MDT 8:00 PM MDT
Nautical Twilight 6:19 AM MDT 8:31 PM MDT
Astronomical Twilight 5:47 AM MDT 9:03 PM MDT
Moon 4:06 PM MDT (3/23) 4:53 AM MDT (3/23)
Length of Visible Light 13h 10m
Length of Day
12h 16m
Waxing Gibbous, 85% of the Moon is Illuminated
Mar 23
Waxing Gibbous
Mar 27
Full
Apr 2
Last Quarter
Apr 10
New
Apr 18
First Quarter

Hourly Weather History & Observations

Time (MDT) Temp. Windchill Dew Point Humidity Pressure Visibility Wind Dir Wind Speed Gust Speed Precip Events Conditions
12:53 AM 30.9 °F 19.1 °F 1.9 °F 29% 29.89 in 10.0 mi WNW 18.4 mph - N/A   Scattered Clouds
1:53 AM 30.0 °F 17.9 °F 3.9 °F 33% 29.90 in 10.0 mi WNW 18.4 mph - N/A   Partly Cloudy
2:53 AM 28.0 °F 16.5 °F 1.9 °F 33% 29.91 in 10.0 mi WNW 15.0 mph - N/A   Clear
3:53 AM 27.0 °F 16.7 °F 1.9 °F 34% 29.91 in 10.0 mi West 11.5 mph - N/A   Clear
4:53 AM 28.0 °F 16.5 °F 3.0 °F 34% 29.91 in 10.0 mi WNW 15.0 mph - N/A   Overcast
5:53 AM 27.0 °F 15.6 °F 1.9 °F 34% 29.92 in 10.0 mi WNW 13.8 mph - N/A   Mostly Cloudy
6:53 AM 27.0 °F 13.9 °F -0.9 °F 30% 29.95 in 10.0 mi WNW 18.4 mph - N/A   Mostly Cloudy
7:53 AM 27.0 °F 13.9 °F 1.0 °F 33% 29.98 in 10.0 mi WNW 18.4 mph - N/A   Clear
8:53 AM 30.0 °F 17.9 °F 1.9 °F 30% 30.02 in 10.0 mi NW 18.4 mph - N/A   Clear
9:53 AM 33.1 °F 22.2 °F 3.0 °F 28% 30.04 in 10.0 mi WNW 17.3 mph - N/A   Clear
10:53 AM 35.1 °F 25.9 °F 3.0 °F 26% 30.04 in 10.0 mi WNW 13.8 mph - N/A   Clear
11:53 AM 37.9 °F 28.2 °F -0.0 °F 20% 30.05 in 10.0 mi WNW 18.4 mph 24.2 mph N/A   Clear
12:53 PM 37.9 °F 31.5 °F -0.9 °F 19% 30.06 in 10.0 mi West 9.2 mph - N/A   Scattered Clouds
1:53 PM 41.0 °F 33.9 °F 3.0 °F 21% 30.06 in 10.0 mi North 12.7 mph 24.2 mph N/A   Mostly Cloudy
2:01 PM 39.2 °F 32.0 °F 3.2 °F 22% 30.03 in 10.0 mi North 11.5 mph - N/A   Mostly Cloudy
2:53 PM 39.0 °F 30.3 °F 3.0 °F 22% 30.07 in 10.0 mi NNE 16.1 mph 20.7 mph N/A   Mostly Cloudy
3:53 PM 37.9 °F 33.5 °F 3.9 °F 24% 30.07 in 10.0 mi East 5.8 mph - N/A   Mostly Cloudy
4:53 PM 39.0 °F 34.8 °F 6.1 °F 26% 30.07 in 10.0 mi Variable 5.8 mph - 0.00 in   Scattered Clouds
5:53 PM 39.0 °F - -0.9 °F 19% 30.07 in 10.0 mi Calm Calm - N/A   Mostly Cloudy
6:53 PM 37.9 °F 32.1 °F 1.9 °F 22% 30.08 in 10.0 mi ENE 8.1 mph - N/A   Scattered Clouds
7:53 PM 35.1 °F - 1.9 °F 25% 30.12 in 10.0 mi Calm Calm - N/A   Partly Cloudy
8:53 PM 33.1 °F 30.0 °F 1.0 °F 26% 30.14 in 10.0 mi East 3.5 mph - N/A   Partly Cloudy
9:53 PM 32.0 °F - 3.0 °F 29% 30.15 in 10.0 mi Calm Calm - N/A   Clear
10:53 PM 33.1 °F 30.0 °F 3.9 °F 29% 30.15 in 10.0 mi Variable 3.5 mph - N/A   Scattered Clouds
11:53 PM 28.0 °F - 3.0 °F 34% 30.17 in 10.0 mi Calm Calm - N/A   Clear